Zurück zum Katalog

STARLINK-37894

AktivKommunikationVLEO
NORAD 69966·PAYLOAD·🇺🇸 United States

Gestartet Jul 9, 2026 von Cape Canaveral Space Force Station

Loading…

Nächste Überflüge (nächste 24 Stunden)

TLE

AktuellSource: CelesTrak SupGP

Epoche: Sep 15, 2026, 04:15 UTC

1 69966C 26157Z   26258.17756944  .00071681  00000+0  21167-2 0  2582
2 69966  53.1590 358.2579 0001228  83.8008 167.0448 15.34371274    18

Verfolge STARLINK-37894 in Echtzeit mit AllMySat

Download on the App Store